When you browse on this site, cookies collect data to enhance your experience and personalize the content and advertising you see.
Visit our Privacy Policy to learn more. By continuing to use the site, you agree to this use of cookies and data.
  • în România
  • Lista ţărilor
  • Pe 7 zile
  • Temperatura apei
  • Meteo pe hartă
  • Widget-uri
  • user-avatar
    Intrare

    Meteo pe oră la Brindisi

    Astăzi, 17 Noiembrie, Duminică

    Timp Temperatura Precipitaţii Vânt Presiune Umiditate
    00:00 +18°C° 0 mm 9 m/s 758 mmHg 78%
    01:00 +18°C° 0 mm 9 m/s 758 mmHg 78%
    02:00 +18°C° 0 mm 9 m/s 758 mmHg 78%
    03:00 +18°C° 0 mm 9 m/s 757 mmHg 79%
    04:00 +18°C° 0 mm 9 m/s 757 mmHg 79%
    05:00 +18°C° 0 mm 10 m/s 757 mmHg 79%
    06:00 +18°C° 0 mm 10 m/s 757 mmHg 78%
    07:00 +18°C° 0 mm 10 m/s 757 mmHg 79%
    08:00 +18°C° 0 mm 10 m/s 757 mmHg 75%
    09:00 +19°C° 0 mm 11 m/s 757 mmHg 72%
    10:00 +21°C° 0 mm 11 m/s 757 mmHg 68%
    11:00 +21°C° 0 mm 11 m/s 757 mmHg 66%
    12:00 +21°C° 0 mm 11 m/s 756 mmHg 64%
    13:00 +22°C° 0 mm 11 m/s 756 mmHg 62%
    14:00 +21°C° 0.1 mm 11 m/s 756 mmHg 65%
    15:00 +21°C° 0.1 mm 11 m/s 756 mmHg 69%
    16:00 +19°C° 0.1 mm 10 m/s 756 mmHg 72%
    17:00 +19°C° 0.6 mm 10 m/s 756 mmHg 73%
    18:00 +18°C° 0.6 mm 11 m/s 756 mmHg 75%
    19:00 +18°C° 0.6 mm 11 m/s 756 mmHg 76%
    20:00 +17°C° 2.2 mm 11 m/s 756 mmHg 80%
    21:00 +17°C° 2.2 mm 11 m/s 755 mmHg 84%
    22:00 +16°C° 2.2 mm 11 m/s 755 mmHg 87%
    23:00 +16°C° 3 mm 10 m/s 755 mmHg 84%

    Mâine, 18 Noiembrie, Luni

    Timp Temperatura Precipitaţii Vânt Presiune Umiditate
    00:00 +15°C° 3 mm 8 m/s 755 mmHg 81%
    01:00 +15°C° 3 mm 7 m/s 755 mmHg 77%
    02:00 +14°C° 0.1 mm 6 m/s 756 mmHg 77%
    03:00 +14°C° 0.1 mm 5 m/s 756 mmHg 77%
    04:00 +13°C° 0.1 mm 4 m/s 757 mmHg 77%
    05:00 +13°C° 0 mm 4 m/s 757 mmHg 76%
    06:00 +13°C° 0 mm 4 m/s 758 mmHg 74%
    07:00 +13°C° 0 mm 4 m/s 759 mmHg 73%
    08:00 +14°C° 0 mm 3 m/s 759 mmHg 66%
    09:00 +17°C° 0 mm 3 m/s 760 mmHg 60%
    10:00 +18°C° 0 mm 3 m/s 761 mmHg 54%
    11:00 +18°C° 0 mm 2 m/s 761 mmHg 50%
    12:00 +19°C° 0 mm 2 m/s 761 mmHg 46%
    13:00 +20°C° 0 mm 1 m/s 761 mmHg 43%
    14:00 +19°C° 0 mm 2 m/s 761 mmHg 49%
    15:00 +18°C° 0 mm 3 m/s 761 mmHg 55%
    16:00 +17°C° 0 mm 3 m/s 761 mmHg 61%
    17:00 +17°C° 0 mm 4 m/s 761 mmHg 64%
    18:00 +15°C° 0 mm 4 m/s 761 mmHg 67%
    19:00 +15°C° 0 mm 4 m/s 761 mmHg 70%
    20:00 +15°C° 0 mm 4 m/s 762 mmHg 71%
    21:00 +15°C° 0 mm 4 m/s 762 mmHg 72%
    22:00 +15°C° 0 mm 5 m/s 762 mmHg 73%
    23:00 +15°C° 0 mm 5 m/s 762 mmHg 73%

    Poimâine, 19 Noiembrie, Marţi

    Timp Temperatura Precipitaţii Vânt Presiune Umiditate
    00:00 +15°C° 0 mm 5 m/s 762 mmHg 73%
    01:00 +15°C° 0 mm 5 m/s 762 mmHg 73%
    02:00 +14°C° 0 mm 5 m/s 762 mmHg 74%
    03:00 +14°C° 0 mm 5 m/s 761 mmHg 75%
    04:00 +14°C° 0 mm 6 m/s 761 mmHg 75%
    05:00 +14°C° 0 mm 6 m/s 761 mmHg 75%
    06:00 +14°C° 0 mm 6 m/s 761 mmHg 74%
    07:00 +14°C° 0 mm 6 m/s 761 mmHg 74%
    08:00 +15°C° 0 mm 6 m/s 762 mmHg 69%
    09:00 +16°C° 0 mm 7 m/s 762 mmHg 65%
    10:00 +17°C° 0 mm 7 m/s 762 mmHg 60%
    11:00 +19°C° 0 mm 6 m/s 761 mmHg 59%
    12:00 +19°C° 0 mm 6 m/s 761 mmHg 58%
    13:00 +19°C° 0 mm 6 m/s 761 mmHg 57%
    14:00 +17°C° 0 mm 5 m/s 760 mmHg 60%
    15:00 +17°C° 0 mm 5 m/s 760 mmHg 62%
    16:00 +17°C° 0 mm 4 m/s 760 mmHg 65%
    17:00 +17°C° 0.1 mm 4 m/s 760 mmHg 67%
    18:00 +15°C° 0.1 mm 4 m/s 759 mmHg 70%
    19:00 +16°C° 0.1 mm 3 m/s 759 mmHg 72%
    20:00 +16°C° 0.2 mm 3 m/s 759 mmHg 73%
    21:00 +16°C° 0.2 mm 3 m/s 759 mmHg 74%
    22:00 +16°C° 0.2 mm 3 m/s 759 mmHg 76%
    23:00 +16°C° 0.4 mm 3 m/s 759 mmHg 76%

    20 Noiembrie, Miercuri

    Timp Temperatura Precipitaţii Vânt Presiune Umiditate
    00:00 +14°C° 0.4 mm 3 m/s 759 mmHg 77%
    01:00 +14°C° 0.4 mm 4 m/s 758 mmHg 77%
    02:00 +14°C° 0.4 mm 4 m/s 758 mmHg 77%
    03:00 +14°C° 0.4 mm 4 m/s 758 mmHg 76%
    04:00 +14°C° 0.4 mm 4 m/s 758 mmHg 75%
    05:00 +14°C° 0.1 mm 4 m/s 758 mmHg 76%
    06:00 +13°C° 0.1 mm 4 m/s 759 mmHg 77%
    07:00 +13°C° 0.1 mm 4 m/s 759 mmHg 79%
    08:00 +14°C° 0 mm 4 m/s 759 mmHg 74%
    09:00 +15°C° 0 mm 4 m/s 759 mmHg 70%
    10:00 +17°C° 0 mm 4 m/s 760 mmHg 65%
    11:00 +18°C° 0 mm 4 m/s 760 mmHg 62%
    12:00 +18°C° 0 mm 4 m/s 760 mmHg 59%
    13:00 +19°C° 0 mm 3 m/s 760 mmHg 57%
    14:00 +18°C° 0 mm 3 m/s 760 mmHg 60%
    15:00 +17°C° 0 mm 2 m/s 760 mmHg 64%
    16:00 +18°C° 0 mm 1 m/s 760 mmHg 67%
    17:00 +16°C° 0 mm 1 m/s 760 mmHg 70%
    18:00 +16°C° 0 mm 1 m/s 760 mmHg 72%
    19:00 +15°C° 0 mm 1 m/s 760 mmHg 74%
    20:00 +15°C° 0 mm 1 m/s 760 mmHg 75%
    21:00 +15°C° 0 mm 1 m/s 761 mmHg 75%
    22:00 +14°C° 0 mm 2 m/s 761 mmHg 76%
    23:00 +14°C° 0 mm 2 m/s 761 mmHg 76%

    21 Noiembrie, Joi

    Timp Temperatura Precipitaţii Vânt Presiune Umiditate
    00:00 +14°C° 0 mm 2 m/s 761 mmHg 75%
    01:00 +14°C° 0 mm 2 m/s 761 mmHg 75%
    02:00 +14°C° 0 mm 2 m/s 761 mmHg 76%
    03:00 +14°C° 0 mm 2 m/s 760 mmHg 77%
    04:00 +14°C° 0 mm 1 m/s 760 mmHg 78%
    05:00 +14°C° 0 mm 2 m/s 760 mmHg 79%
    06:00 +14°C° 0 mm 2 m/s 760 mmHg 79%
    07:00 +14°C° 0 mm 2 m/s 760 mmHg 80%
    08:00 +15°C° 0 mm 2 m/s 760 mmHg 75%
    09:00 +16°C° 0 mm 2 m/s 761 mmHg 71%
    10:00 +17°C° 0 mm 2 m/s 761 mmHg 66%
    11:00 +18°C° 0 mm 2 m/s 760 mmHg 63%
    12:00 +18°C° 0 mm 2 m/s 760 mmHg 61%
    13:00 +18°C° 0 mm 2 m/s 760 mmHg 58%
    14:00 +18°C° 0 mm 2 m/s 760 mmHg 62%
    15:00 +17°C° 0 mm 2 m/s 760 mmHg 65%
    16:00 +17°C° 0 mm 2 m/s 760 mmHg 69%
    17:00 +16°C° 0 mm 2 m/s 760 mmHg 72%
    18:00 +16°C° 0 mm 2 m/s 760 mmHg 74%
    19:00 +15°C° 0 mm 2 m/s 760 mmHg 77%
    20:00 +15°C° 0 mm 2 m/s 761 mmHg 79%
    21:00 +15°C° 0 mm 2 m/s 761 mmHg 81%
    22:00 +14°C° 0 mm 1 m/s 761 mmHg 82%
    23:00 +14°C° 0 mm 1 m/s 761 mmHg 83%

    22 Noiembrie, Vineri

    Timp Temperatura Precipitaţii Vânt Presiune Umiditate
    00:00 +14°C° 0 mm 1 m/s 761 mmHg 83%
    01:00 +14°C° 0 mm 1 m/s 761 mmHg 83%
    02:00 +14°C° 0 mm 1 m/s 761 mmHg 83%
    03:00 +14°C° 0 mm 1 m/s 761 mmHg 83%
    04:00 +14°C° 0 mm 1 m/s 761 mmHg 82%
    05:00 +13°C° 0 mm 2 m/s 761 mmHg 83%
    06:00 +13°C° 0 mm 2 m/s 761 mmHg 83%
    07:00 +13°C° 0 mm 2 m/s 761 mmHg 83%
    08:00 +15°C° 0 mm 1 m/s 762 mmHg 79%
    09:00 +16°C° 0 mm 1 m/s 762 mmHg 75%
    10:00 +18°C° 0 mm 1 m/s 762 mmHg 72%
    11:00 +19°C° 0 mm 1 m/s 762 mmHg 68%
    12:00 +18°C° 0 mm 2 m/s 762 mmHg 64%
    13:00 +19°C° 0 mm 2 m/s 761 mmHg 61%
    14:00 +18°C° 0 mm 2 m/s 761 mmHg 64%
    15:00 +18°C° 0 mm 2 m/s 761 mmHg 67%
    16:00 +17°C° 0 mm 3 m/s 761 mmHg 70%
    17:00 +17°C° 0 mm 3 m/s 761 mmHg 73%
    18:00 +16°C° 0 mm 3 m/s 762 mmHg 75%
    19:00 +14°C° 0 mm 3 m/s 762 mmHg 78%
    20:00 +14°C° 0 mm 3 m/s 762 mmHg 78%
    21:00 +14°C° 0 mm 3 m/s 762 mmHg 78%
    22:00 +14°C° 0 mm 3 m/s 762 mmHg 78%
    23:00 +14°C° 0 mm 3 m/s 762 mmHg 78%
    Arată mai mult